This demonstration page uses our WeatherBlox Daily Observations layout. Learn more.

Left ArrowRight Arrow

Hourly Observations for August 26, 2015

Temp ( °F °C ) Dew Point ( °F °C ) Humidity (%) Winds ( mph kmh ) Pressure ( in mb ) Visibility ( mi km ) Precip ( " mm )
12:15 am 00:15 Clear 64 17.6 60 15.8 89 89 ESE 6 9 30.06 1018 10 16 N/A
12:35 am 00:35 Clear 64 18 60 15.7 87 87 ESE 7 11 30.06 1018 10 16 N/A
12:55 am 00:55 Clear 63 17.4 59 15.2 87 87 ESE 6 9 30.09 1019 10 16 N/A
1:15 am 01:15 Clear 63 17.3 59 15 86 86 ESE 5 7 30.09 1019 10 16 N/A
1:35 am 01:35 Clear 62 16.5 58 14.5 88 88 E 6 9 30.09 1019 10 16 N/A
1:55 am 01:55 Clear 62 16.5 58 14.4 87 87 ESE 6 9 30.09 1019 10 16 N/A
2:15 am 02:15 Clear 62 16.5 57 14.1 86 86 ESE 6 9 30.09 1019 10 16 N/A
2:35 am 02:35 Clear 61 16.3 57 14 86 86 ESE 6 9 30.09 1019 10 16 N/A
2:55 am 02:55 Clear 61 16.1 57 13.9 87 87 ESE 5 7 30.09 1019 10 16 N/A
3:15 am 03:15 Clear 59 15.2 56 13.3 89 89 SE 5 7 30.09 1019 10 16 N/A
3:35 am 03:35 Clear 60 15.5 56 13.5 88 88 ESE 3 6 30.09 1019 10 16 N/A
3:55 am 03:55 Clear 59 15.1 56 13.3 89 89 ESE 3 6 30.09 1019 10 16 N/A
4:15 am 04:15 Clear 57 13.8 55 12.5 92 92 ENE 7 11 30.12 1020 10 16 N/A
4:35 am 04:35 Clear 56 13.5 55 12.5 94 94 E 5 7 30.12 1020 10 16 N/A
4:55 am 04:55 Clear 55 13 54 12 94 94 ESE 3 6 30.12 1020 10 16 N/A
5:15 am 05:15 Clear 55 13 53 11.9 93 93 ESE 3 6 30.12 1020 10 16 N/A
5:35 am 05:35 Clear 55 12.9 53 11.8 93 93 Calm 30.12 1020 10 16 N/A
5:55 am 05:55 Clear 55 12.8 53 11.8 94 94 Calm 30.12 1020 10 16 N/A
6:15 am 06:15 Clear 55 13 54 12.1 94 94 Calm 30.09 1019 10 16 N/A
6:35 am 06:35 Clear 54 12.1 52 11.2 94 94 Calm 30.09 1019 10 16 N/A
6:55 am 06:55 Clear 55 12.5 53 11.6 94 94 Calm 30.09 1019 10 16 N/A
7:15 am 07:15 Sunny 54 12.4 53 11.7 96 96 Calm 30.12 1020 10 16 N/A
7:35 am 07:35 Sunny with Mist and Fog 55 12.7 53 11.9 95 95 E 5 7 30.12 1020 5 8 N/A
7:55 am 07:55 Sunny 56 13.5 55 12.8 96 96 ENE 5 7 30.12 1020 7 11 N/A
8:15 am 08:15 Sunny 58 14.4 56 13.6 95 95 Calm 30.12 1020 7 11 N/A
8:35 am 08:35 Sunny 60 15.5 58 14.7 95 95 Calm 30.09 1019 10 16 N/A
8:55 am 08:55 Sunny 63 17.3 60 15.5 89 89 Calm 30.09 1019 10 16 N/A
9:15 am 09:15 Sunny 65 18.5 61 16.2 87 87 ENE 3 6 30.06 1018 10 16 N/A
9:35 am 09:35 Sunny 67 19.7 63 17.4 87 87 Calm 30.06 1018 10 16 N/A
9:55 am 09:55 Sunny 70 21.2 64 17.6 80 80 SE 3 6 30.06 1018 10 16 N/A
10:15 am 10:15 Sunny 72 22.3 65 18.5 79 79 SSE 3 6 30.00 1016 10 16 N/A
10:35 am 10:35 Sunny 75 23.9 67 19.6 77 77 SE 5 7 30.00 1016 10 16 N/A
10:55 am 10:55 Sunny 78 25.3 69 20.7 76 76 SSE 6 9 29.97 1015 10 16 N/A
11:15 am 11:15 Sunny 79 26 70 21 74 74 SSE 6 9 29.97 1015 10 16 N/A
11:35 am 11:35 Sunny 80 26.8 71 21.8 74 74 SSE 8 13 29.97 1015 10 16 N/A
11:55 am 11:55 Sunny 81 27 71 21.5 72 72 SSE 14 22 29.97 1015 10 16 N/A
12:15 pm 12:15 Sunny 81 27.2 71 21.5 71 71 S 14 22 29.97 1015 10 16 N/A
12:35 pm 12:35 Sunny 82 27.8 72 22 71 71 SSE 12 19 29.94 1014 10 16 N/A
12:55 pm 12:55 Sunny 82 28 72 22.1 70 70 SSE 14 22 29.94 1014 10 16 N/A
1:15 pm 13:15 Sunny 83 28.5 72 22 68 68 SSE 14 22 29.94 1014 10 16 N/A
1:35 pm 13:35 Sunny 84 28.9 72 22.4 68 68 SSE 14 22 29.91 1013 10 16 N/A
1:55 pm 13:55 Sunny 85 29.5 73 22.6 66 66 SE 14 22 29.91 1013 10 16 N/A
2:15 pm 14:15 Sunny 86 29.9 73 22.7 65 65 SSE 14 22 29.91 1013 10 16 N/A
2:35 pm 14:35 Sunny 86 30.2 73 22.5 63 63 SSE 13 20 29.91 1013 10 16 N/A
2:55 pm 14:55 Sunny 87 30.3 72 22.2 62 62 SE 15 24 29.91 1013 10 16 N/A
3:15 pm 15:15 Sunny 87 30.5 72 22.3 62 62 SSE 13 20 29.91 1013 10 16 N/A
3:35 pm 15:35 Sunny 87 30.7 72 22.4 61 61 SSE 13 20 29.85 1011 10 16 N/A
3:55 pm 15:55 Sunny 87 30.8 73 22.6 62 62 SE 14 22 29.85 1011 10 16 N/A
4:15 pm 16:15 Sunny 88 31.1 73 22.5 60 60 SSE 14 22 29.85 1011 10 16 N/A
4:35 pm 16:35 Sunny 88 31 72 22.3 60 60 SSE 12 19 29.85 1011 10 16 N/A
4:55 pm 16:55 Sunny 88 30.9 72 22.1 59 59 SSE 13 20 29.85 1011 10 16 N/A
5:15 pm 17:15 Sunny 88 31.1 72 22.2 59 59 SE 14 22 29.85 1011 10 16 N/A
5:35 pm 17:35 Sunny 88 31.2 71 21.8 57 57 SE 14 22 29.85 1011 10 16 N/A
5:55 pm 17:55 Sunny 88 31 72 22 59 59 SE 13 20 29.85 1011 10 16 N/A
6:15 pm 18:15 Sunny 87 30.6 72 22.3 61 61 ESE 16 26 29.85 1011 10 16 N/A
6:35 pm 18:35 Sunny 87 30.5 72 22.2 61 61 SE 14 22 29.83 1010 10 16 N/A
6:55 pm 18:55 Sunny 86 30 72 22.3 63 63 ESE 12 19 29.85 1011 10 16 N/A
7:15 pm 19:15 Sunny 85 29.2 72 22.3 66 66 SE 13 20 29.85 1011 10 16 N/A
7:35 pm 19:35 Sunny 84 28.7 72 22.2 68 68 ESE 13 20 29.85 1011 10 16 N/A
7:55 pm 19:55 Sunny 83 28.1 73 22.5 72 72 ESE 13 20 29.85 1011 10 16 N/A
8:15 pm 20:15 Sunny 82 27.5 72 22.2 73 73 ESE 13 20 29.85 1011 10 16 N/A
8:35 pm 20:35 Clear 81 27 72 22 74 74 ESE 12 19 29.85 1011 10 16 N/A
8:55 pm 20:55 Clear 80 26.5 71 21.8 75 75 ESE 12 19 29.85 1011 10 16 N/A
9:15 pm 21:15 Clear 79 26.1 71 21.6 76 76 ESE 10 17 29.88 1012 10 16 N/A
9:35 pm 21:35 Clear 78 25.7 71 21.7 79 79 ESE 12 19 29.91 1013 10 16 N/A
9:55 pm 21:55 Clear 78 25.3 71 21.8 81 81 SE 13 20 29.91 1013 10 16 N/A
10:15 pm 22:15 Clear 77 25 71 21.7 82 82 SE 10 17 29.91 1013 10 16 N/A
10:35 pm 22:35 Clear 76 24.5 71 21.7 84 84 SE 10 17 29.91 1013 10 16 N/A
10:55 pm 22:55 Clear 75 24 71 21.6 87 87 SE 10 17 29.91 1013 10 16 N/A
11:15 pm 23:15 Clear 75 23.7 71 21.6 88 88 SE 9 15 29.88 1012 10 16 N/A
11:35 pm 23:35 Clear 74 23.3 71 21.5 90 90 SE 7 11 29.91 1013 10 16 N/A
11:55 pm 23:55 Clear 74 23.2 71 21.5 90 90 SE 8 13 29.91 1013 10 16 N/A

Powered by AerisWeather